| time (UTC) | temp C | wind direction | speed KPH | gust KPH | rain 1hr cm | rain 24hr cm | rain mn cm | humidity % | barometer mb |
| 20260510231007 | 28 | 253 | 8.0 | 12.9 | 0.00 | 0.38 | 0.38 | 68 | 1015.5 |
| 20260510230506 | 28 | 309 | 4.8 | 12.9 | 0.00 | 0.38 | 0.38 | 68 | 1015.5 |
| 20260510230025 | 29 | 7 | 8.0 | 12.9 | 0.00 | 0.38 | 0.38 | 67 | 1015.7 |
| 20260510225509 | 29 | 249 | 3.2 | 11.3 | 0.00 | 0.38 | 0.38 | 68 | 1015.6 |
| 20260510225008 | 29 | 343 | 6.4 | 11.3 | 0.00 | 0.38 | 0.38 | 67 | 1015.6 |
| 20260510224504 | 29 | 298 | 6.4 | 14.5 | 0.00 | 0.38 | 0.38 | 66 | 1015.6 |
| 20260510224004 | 29 | 307 | 8.0 | 14.5 | 0.00 | 0.38 | 0.38 | 65 | 1015.6 |
| 20260510223504 | 30 | 291 | 6.4 | 12.9 | 0.00 | 0.38 | 0.38 | 65 | 1015.5 |
| 20260510223008 | 30 | 327 | 6.4 | 11.3 | 0.00 | 0.38 | 0.38 | 65 | 1015.5 |
| 20260510222504 | 30 | 295 | 6.4 | 12.9 | 0.00 | 0.38 | 0.38 | 64 | 1015.4 |
| 20260510222003 | 30 | 312 | 8.0 | 12.9 | 0.00 | 0.38 | 0.38 | 64 | 1015.5 |
| 20260510221510 | 30 | 260 | 6.4 | 14.5 | 0.00 | 0.38 | 0.38 | 63 | 1015.6 |
| 20260510221006 | 30 | 251 | 8.0 | 14.5 | 0.00 | 0.38 | 0.38 | 63 | 1015.7 |
| 20260510220504 | 30 | 271 | 8.0 | 16.1 | 0.00 | 0.38 | 0.38 | 64 | 1015.8 |
| 20260510220008 | 30 | 341 | 8.0 | 16.1 | 0.00 | 0.38 | 0.38 | 62 | 1015.7 |
| 20260510215505 | 30 | 326 | 6.4 | 14.5 | 0.00 | 0.38 | 0.38 | 63 | 1015.7 |
| 20260510215007 | 30 | 286 | 6.4 | 17.7 | 0.00 | 0.38 | 0.38 | 63 | 1015.7 |
| 20260510214507 | 30 | 296 | 11.3 | 17.7 | 0.00 | 0.38 | 0.38 | 61 | 1015.8 |
| 20260510214002 | 30 | 350 | 8.0 | 14.5 | 0.00 | 0.38 | 0.38 | 63 | 1015.7 |
| 20260510213507 | 30 | 299 | 8.0 | 17.7 | 0.00 | 0.38 | 0.38 | 63 | 1015.8 |
| 20260510213005 | 30 | 350 | 8.0 | 17.7 | 0.00 | 0.38 | 0.38 | 62 | 1015.8 |
| 20260510212504 | 30 | 275 | 11.3 | 19.3 | 0.00 | 0.38 | 0.38 | 61 | 1015.9 |
| 20260510212005 | 30 | 280 | 9.7 | 19.3 | 0.00 | 0.38 | 0.38 | 61 | 1016.0 |
| 20260510211509 | 31 | 310 | 12.9 | 19.3 | 0.00 | 0.38 | 0.38 | 60 | 1015.9 |
| 20260510211002 | 31 | 260 | 8.0 | 16.1 | 0.00 | 0.38 | 0.38 | 60 | 1015.9 |
| 20260510210502 | 31 | 345 | 8.0 | 16.1 | 0.00 | 0.38 | 0.38 | 61 | 1015.8 |
| 20260510210009 | 31 | 268 | 9.7 | 22.5 | 0.00 | 0.38 | 0.38 | 61 | 1015.9 |
| 20260510205503 | 31 | 240 | 8.0 | 22.5 | 0.00 | 0.38 | 0.38 | 59 | 1015.9 |
| 20260510205002 | 30 | 337 | 8.0 | 20.9 | 0.00 | 0.38 | 0.38 | 59 | 1015.9 |
| 20260510204517 | 31 | 292 | 8.0 | 19.3 | 0.00 | 0.38 | 0.38 | 59 | 1015.7 |
| 20260510204003 | 31 | 261 | 9.7 | 19.3 | 0.00 | 0.38 | 0.38 | 60 | 1015.7 |
| 20260510203502 | 31 | 326 | 12.9 | 17.7 | 0.00 | 0.38 | 0.38 | 58 | 1015.8 |
| 20260510203008 | 31 | 301 | 9.7 | 16.1 | 0.00 | 0.38 | 0.38 | 58 | 1015.7 |
| 20260510202502 | 31 | 262 | 9.7 | 17.7 | 0.00 | 0.38 | 0.38 | 57 | 1015.6 |
| 20260510202003 | 31 | 344 | 9.7 | 20.9 | 0.00 | 0.38 | 0.38 | 56 | 1015.6 |
| 20260510201503 | 31 | 305 | 14.5 | 20.9 | 0.00 | 0.38 | 0.38 | 56 | 1015.7 |
| 20260510201008 | 31 | 11 | 9.7 | 22.5 | 0.00 | 0.38 | 0.38 | 54 | 1015.5 |
| 20260510200503 | 32 | 346 | 11.3 | 22.5 | 0.00 | 0.38 | 0.38 | 54 | 1015.6 |
| 20260510200016 | 32 | 265 | 14.5 | 22.5 | 0.00 | 0.38 | 0.38 | 52 | 1015.7 |
| 20260510195502 | 32 | 307 | 8.0 | 19.3 | 0.00 | 0.38 | 0.38 | 53 | 1015.8 |
| 20260510195002 | 32 | 277 | 8.0 | 24.1 | 0.00 | 0.38 | 0.38 | 56 | 1015.6 |
| 20260510194510 | 32 | 270 | 9.7 | 24.1 | 0.00 | 0.38 | 0.38 | 54 | 1015.6 |
| 20260510194007 | 32 | 339 | 12.9 | 24.1 | 0.00 | 0.38 | 0.38 | 53 | 1015.6 |
| 20260510193503 | 32 | 249 | 11.3 | 19.3 | 0.00 | 0.38 | 0.38 | 53 | 1015.7 |
| 20260510193011 | 32 | 221 | 9.7 | 19.3 | 0.00 | 0.38 | 0.38 | 54 | 1015.7 |
| 20260510192506 | 32 | 204 | 9.7 | 22.5 | 0.00 | 0.38 | 0.38 | 56 | 1015.6 |
| 20260510192007 | 32 | 221 | 9.7 | 22.5 | 0.00 | 0.38 | 0.38 | 56 | 1015.7 |
| 20260510191515 | 32 | 267 | 11.3 | 20.9 | 0.00 | 0.38 | 0.38 | 56 | 1015.7 |
| 20260510191004 | 32 | 293 | 8.0 | 17.7 | 0.00 | 0.38 | 0.38 | 56 | 1015.7 |
| 20260510190503 | 32 | 261 | 4.8 | 19.3 | 0.00 | 0.38 | 0.38 | 57 | 1015.6 |
| 20260510190009 | 32 | 263 | 9.7 | 19.3 | 0.00 | 0.38 | 0.38 | 58 | 1015.7 |
| 20260510185503 | 32 | 319 | 11.3 | 20.9 | 0.00 | 0.38 | 0.38 | 57 | 1015.6 |
| 20260510185003 | 32 | 275 | 9.7 | 20.9 | 0.00 | 0.38 | 0.38 | 59 | 1015.8 |
| 20260510184512 | 32 | 231 | 9.7 | 19.3 | 0.00 | 0.38 | 0.38 | 57 | 1015.7 |
| 20260510184003 | 32 | 221 | 8.0 | 19.3 | 0.00 | 0.38 | 0.38 | 57 | 1015.7 |
| 20260510183503 | 32 | 291 | 11.3 | 20.9 | 0.00 | 0.38 | 0.38 | 57 | 1015.8 |
| 20260510183010 | 32 | 223 | 11.3 | 20.9 | 0.00 | 0.38 | 0.38 | 59 | 1015.8 |
| 20260510182503 | 32 | 212 | 11.3 | 17.7 | 0.00 | 0.38 | 0.38 | 58 | 1016.0 |
| 20260510182006 | 32 | 218 | 9.7 | 20.9 | 0.00 | 0.38 | 0.38 | 57 | 1015.9 |
| 20260510181514 | 32 | 180 | 11.3 | 20.9 | 0.00 | 0.38 | 0.38 | 56 | 1015.9 |
| 20260510181004 | 32 | 215 | 9.7 | 20.9 | 0.00 | 0.38 | 0.38 | 57 | 1016.0 |
| 20260510180504 | 32 | 215 | 9.7 | 20.9 | 0.00 | 0.38 | 0.38 | 57 | 1016.2 |
| 20260510180014 | 32 | 241 | 8.0 | 22.5 | 0.00 | 0.38 | 0.38 | 60 | 1016.3 |
| 20260510175503 | 32 | 218 | 11.3 | 22.5 | 0.00 | 0.38 | 0.38 | 59 | 1016.2 |
| 20260510175006 | 32 | 225 | 11.3 | 19.3 | 0.00 | 0.38 | 0.38 | 59 | 1016.3 |
| 20260510174507 | 32 | 230 | 9.7 | 16.1 | 0.00 | 0.38 | 0.38 | 58 | 1016.3 |
| 20260510174003 | 32 | 220 | 8.0 | 19.3 | 0.00 | 0.38 | 0.38 | 59 | 1016.4 |
| 20260510173504 | 32 | 212 | 6.4 | 19.3 | 0.00 | 0.38 | 0.38 | 58 | 1016.4 |
| 20260510173016 | 32 | 215 | 11.3 | 17.7 | 0.00 | 0.38 | 0.38 | 58 | 1016.6 |
| 20260510172503 | 32 | 229 | 6.4 | 19.3 | 0.00 | 0.38 | 0.38 | 58 | 1016.6 |
| 20260510172003 | 32 | 224 | 11.3 | 22.5 | 0.00 | 0.38 | 0.38 | 56 | 1016.7 |
| 20260510171514 | 32 | 220 | 8.0 | 22.5 | 0.00 | 0.38 | 0.38 | 57 | 1016.7 |
| 20260510171003 | 32 | 213 | 9.7 | 19.3 | 0.00 | 0.38 | 0.38 | 60 | 1016.7 |
| 20260510170506 | 31 | 213 | 4.8 | 11.3 | 0.00 | 0.38 | 0.38 | 60 | 1016.9 |
| 20260510170015 | 32 | 258 | 4.8 | 14.5 | 0.00 | 0.38 | 0.38 | 60 | 1016.9 |
| 20260510165507 | 31 | 208 | 8.0 | 19.3 | 0.00 | 0.38 | 0.38 | 59 | 1017.1 |
| 20260510165008 | 31 | 287 | 6.4 | 19.3 | 0.00 | 0.38 | 0.38 | 61 | 1017.1 |
| 20260510164516 | 31 | 232 | 8.0 | 19.3 | 0.00 | 0.38 | 0.38 | 59 | 1017.1 |
| 20260510164005 | 31 | 216 | 9.7 | 16.1 | 0.00 | 0.38 | 0.38 | 59 | 1017.1 |
| 20260510163508 | 31 | 228 | 9.7 | 16.1 | 0.00 | 0.38 | 0.38 | 60 | 1017.0 |
| 20260510163008 | 31 | 277 | 6.4 | 14.5 | 0.00 | 0.38 | 0.38 | 63 | 1017.1 |
| 20260510162503 | 31 | 240 | 8.0 | 16.1 | 0.00 | 0.38 | 0.38 | 64 | 1017.3 |
| 20260510162005 | 31 | 211 | 3.2 | 16.1 | 0.00 | 0.38 | 0.38 | 62 | 1017.2 |
| 20260510161512 | 31 | 208 | 6.4 | 12.9 | 0.00 | 0.38 | 0.38 | 63 | 1017.2 |
| 20260510161009 | 30 | 208 | 4.8 | 12.9 | 0.00 | 0.38 | 0.38 | 64 | 1017.3 |
| 20260510160507 | 31 | 289 | 6.4 | 16.1 | 0.00 | 0.38 | 0.38 | 61 | 1017.3 |
| 20260510160017 | 31 | 216 | 6.4 | 16.1 | 0.00 | 0.38 | 0.38 | 61 | 1017.3 |
| 20260510155513 | 31 | 220 | 9.7 | 20.9 | 0.00 | 0.38 | 0.38 | 61 | 1017.3 |
| 20260510155010 | 30 | 219 | 8.0 | 20.9 | 0.00 | 0.38 | 0.38 | 63 | 1017.3 |
| 20260510154516 | 30 | 223 | 8.0 | 14.5 | 0.00 | 0.38 | 0.38 | 63 | 1017.3 |
| 20260510154006 | 30 | 209 | 3.2 | 19.3 | 0.00 | 0.38 | 0.38 | 64 | 1017.2 |
| 20260510153508 | 30 | 190 | 12.9 | 19.3 | 0.00 | 0.38 | 0.38 | 62 | 1017.2 |
| 20260510153014 | 30 | 204 | 6.4 | 14.5 | 0.00 | 0.38 | 0.38 | 63 | 1017.1 |
| 20260510152510 | 30 | 175 | 4.8 | 16.1 | 0.00 | 0.38 | 0.38 | 65 | 1017.1 |
| 20260510152007 | 30 | 182 | 11.3 | 16.1 | 0.00 | 0.38 | 0.38 | 67 | 1017.3 |
| 20260510151507 | 29 | 199 | 9.7 | 14.5 | 0.00 | 0.38 | 0.38 | 67 | 1017.3 |
| 20260510151002 | 29 | 215 | 6.4 | 16.1 | 0.00 | 0.38 | 0.38 | 67 | 1017.4 |
| 20260510150505 | 29 | 232 | 6.4 | 16.1 | 0.00 | 0.38 | 0.38 | 68 | 1017.4 |
| 20260510150012 | 29 | 203 | 9.7 | 16.1 | 0.00 | 0.38 | 0.38 | 65 | 1017.4 |
| 20260510145505 | 29 | 214 | 4.8 | 12.9 | 0.00 | 0.38 | 0.38 | 67 | 1017.4 |
| 20260510145003 | 29 | 210 | 6.4 | 12.9 | 0.00 | 0.38 | 0.38 | 67 | 1017.4 |
| 20260510144532 | 29 | 197 | 8.0 | 12.9 | 0.00 | 0.38 | 0.38 | 70 | 1017.4 |
| 20260510144014 | 28 | 218 | 6.4 | 12.9 | 0.00 | 0.38 | 0.38 | 70 | 1017.5 |
| 20260510143507 | 28 | 213 | 4.8 | 14.5 | 0.00 | 0.38 | 0.38 | 72 | 1017.4 |
| 20260510143019 | 28 | 186 | 8.0 | 14.5 | 0.00 | 0.38 | 0.38 | 73 | 1017.3 |
| 20260510142507 | 28 | 218 | 8.0 | 12.9 | 0.00 | 0.38 | 0.38 | 70 | 1017.3 |
| 20260510142006 | 28 | 214 | 6.4 | 12.9 | 0.00 | 0.38 | 0.38 | 73 | 1017.3 |
| 20260510141523 | 28 | 191 | 4.8 | 12.9 | 0.00 | 0.38 | 0.38 | 75 | 1017.3 |
| 20260510141008 | 27 | 218 | 6.4 | 9.7 | 0.00 | 0.38 | 0.38 | 74 | 1017.2 |
| 20260510140509 | 27 | 190 | 4.8 | 9.7 | 0.00 | 0.38 | 0.38 | 75 | 1017.1 |
| 20260510140020 | 27 | 195 | 3.2 | 14.5 | 0.00 | 0.38 | 0.38 | 79 | 1016.9 |
| 20260510135505 | 27 | 168 | 8.0 | 14.5 | 0.00 | 0.38 | 0.38 | 78 | 1017.0 |
| 20260510135003 | 27 | 194 | 4.8 | 9.7 | 0.00 | 0.38 | 0.38 | 79 | 1017.0 |
| 20260510134512 | 26 | 196 | 3.2 | 11.3 | 0.00 | 0.38 | 0.38 | 79 | 1016.9 |
| 20260510134002 | 26 | 199 | 4.8 | 14.5 | 0.00 | 0.38 | 0.38 | 80 | 1017.0 |
| 20260510133504 | 26 | 195 | 8.0 | 14.5 | 0.00 | 0.38 | 0.38 | 81 | 1016.8 |
| 20260510133004 | 26 | 193 | 6.4 | 12.9 | 0.00 | 0.38 | 0.38 | 81 | 1017.0 |
| 20260510132503 | 26 | 196 | 6.4 | 12.9 | 0.00 | 0.38 | 0.38 | 82 | 1016.8 |
| 20260510132002 | 25 | 177 | 3.2 | 8.0 | 0.00 | 0.38 | 0.38 | 84 | 1016.8 |
| 20260510131503 | 25 | 209 | 3.2 | 9.7 | 0.00 | 0.38 | 0.38 | 84 | 1016.6 |
| 20260510131004 | 25 | 210 | 3.2 | 9.7 | 0.00 | 0.38 | 0.38 | 85 | 1016.8 |
| 20260510130504 | 25 | 198 | 3.2 | 8.0 | 0.00 | 0.38 | 0.38 | 85 | 1016.7 |
| 20260510130008 | 25 | 198 | 3.2 | 6.4 | 0.00 | 0.38 | 0.38 | 87 | 1016.6 |
| 20260510125503 | 25 | 206 | 4.8 | 9.7 | 0.00 | 0.38 | 0.38 | 88 | 1016.6 |
| 20260510125006 | 24 | 185 | 6.4 | 9.7 | 0.00 | 0.38 | 0.38 | 88 | 1016.7 |
| 20260510124510 | 24 | 200 | 4.8 | 8.0 | 0.00 | 0.38 | 0.38 | 90 | 1016.7 |
| 20260510124006 | 23 | 206 | 3.2 | 6.4 | 0.00 | 0.38 | 0.38 | 91 | 1016.7 |
| 20260510123503 | 23 | 199 | 1.6 | 4.8 | 0.00 | 0.38 | 0.38 | 92 | 1016.5 |
| 20260510123017 | 23 | 199 | 1.6 | 4.8 | 0.00 | 0.38 | 0.38 | 92 | 1016.5 |
| 20260510122502 | 23 | 195 | 1.6 | 6.4 | 0.00 | 0.38 | 0.38 | 92 | 1016.3 |
| 20260510122002 | 23 | 193 | 3.2 | 6.4 | 0.00 | 0.38 | 0.38 | 93 | 1016.4 |
| 20260510121505 | 23 | 198 | 1.6 | 3.2 | 0.00 | 0.38 | 0.38 | 94 | 1016.4 |
| 20260510121004 | 23 | 190 | 0.0 | 1.6 | 0.00 | 0.38 | 0.38 | 94 | 1016.3 |
| 20260510120504 | 22 | 188 | 0.0 | 1.6 | 0.00 | 0.38 | 0.38 | 94 | 1016.2 |
| 20260510120007 | 22 | 188 | 0.0 | 1.6 | 0.00 | 0.38 | 0.38 | 94 | 1016.2 |
| 20260510115504 | 22 | 188 | 0.0 | 1.6 | 0.00 | 0.38 | 0.38 | 94 | 1016.1 |
| 20260510115004 | 22 | 188 | 0.0 | 1.6 | 0.00 | 0.38 | 0.38 | 95 | 1016.0 |
| 20260510114508 | 22 | 188 | 0.0 | 1.6 | 0.00 | 0.38 | 0.38 | 95 | 1016.0 |
| 20260510114004 | 22 | 188 | 0.0 | 1.6 | 0.00 | 0.38 | 0.38 | 95 | 1015.8 |
| 20260510113504 | 22 | 188 | 0.0 | 1.6 | 0.00 | 0.38 | 0.38 | 94 | 1015.7 |
| 20260510113013 | 22 | 188 | 0.0 | 1.6 | 0.00 | 0.38 | 0.38 | 94 | 1015.7 |
| 20260510112503 | 22 | 188 | 0.0 | 1.6 | 0.00 | 0.38 | 0.38 | 94 | 1015.5 |
| 20260510112006 | 22 | 188 | 0.0 | 1.6 | 0.00 | 0.38 | 0.38 | 94 | 1015.5 |
| 20260510111516 | 22 | 189 | 0.0 | 1.6 | 0.00 | 0.38 | 0.38 | 94 | 1015.5 |
| 20260510111007 | 22 | 188 | 0.0 | 0.0 | 0.00 | 0.38 | 0.38 | 94 | 1015.4 |
| 20260510110503 | 22 | 188 | 0.0 | 0.0 | 0.00 | 0.38 | 0.38 | 94 | 1015.2 |
| 20260510110005 | 22 | 189 | 0.0 | 1.6 | 0.00 | 0.38 | 0.38 | 94 | 1015.3 |
| 20260510105503 | 22 | 189 | 0.0 | 1.6 | 0.00 | 0.38 | 0.38 | 95 | 1015.2 |
| 20260510105002 | 21 | 188 | 0.0 | 0.0 | 0.00 | 0.38 | 0.38 | 94 | 1015.2 |
| 20260510104504 | 21 | 188 | 0.0 | 0.0 | 0.00 | 0.38 | 0.38 | 94 | 1015.0 |
| 20260510104006 | 21 | 189 | 0.0 | 1.6 | 0.00 | 0.38 | 0.38 | 94 | 1014.9 |
| 20260510103504 | 21 | 188 | 0.0 | 1.6 | 0.00 | 0.38 | 0.38 | 94 | 1014.7 |
| 20260510103008 | 21 | 189 | 0.0 | 1.6 | 0.00 | 0.38 | 0.38 | 94 | 1014.6 |
| 20260510102504 | 21 | 188 | 0.0 | 1.6 | 0.00 | 0.38 | 0.38 | 94 | 1014.4 |
| 20260510102006 | 21 | 188 | 0.0 | 1.6 | 0.00 | 0.38 | 0.38 | 94 | 1014.5 |
| 20260510101511 | 22 | 188 | 0.0 | 1.6 | 0.00 | 0.38 | 0.38 | 94 | 1014.4 |
| 20260510101003 | 22 | 189 | 0.0 | 1.6 | 0.00 | 0.38 | 0.38 | 94 | 1014.3 |
| 20260510100508 | 21 | 189 | 0.0 | 0.0 | 0.00 | 0.38 | 0.38 | 94 | 1014.2 |
| 20260510100018 | 22 | 188 | 0.0 | 1.6 | 0.00 | 0.38 | 0.38 | 94 | 1014.3 |
| 20260510095507 | 22 | 188 | 0.0 | 1.6 | 0.00 | 0.38 | 0.38 | 94 | 1014.3 |
| 20260510095004 | 22 | 188 | 0.0 | 1.6 | 0.00 | 0.38 | 0.38 | 94 | 1014.3 |
| 20260510094504 | 22 | 188 | 0.0 | 1.6 | 0.00 | 0.38 | 0.38 | 93 | 1014.2 |
| 20260510094001 | 22 | 188 | 0.0 | 1.6 | 0.00 | 0.38 | 0.38 | 94 | 1014.3 |
| 20260510093503 | 22 | 188 | 0.0 | 1.6 | 0.00 | 0.38 | 0.38 | 93 | 1014.2 |
| 20260510093004 | 22 | 188 | 0.0 | 1.6 | 0.00 | 0.38 | 0.38 | 93 | 1014.1 |
| 20260510092504 | 22 | 189 | 0.0 | 1.6 | 0.00 | 0.38 | 0.38 | 93 | 1014.1 |
| 20260510092004 | 22 | 189 | 0.0 | 1.6 | 0.00 | 0.38 | 0.38 | 93 | 1014.1 |
| 20260510091512 | 22 | 188 | 0.0 | 1.6 | 0.00 | 0.38 | 0.38 | 93 | 1014.1 |
| 20260510091003 | 22 | 188 | 0.0 | 1.6 | 0.00 | 0.38 | 0.38 | 93 | 1014.0 |
| 20260510090506 | 22 | 189 | 0.0 | 1.6 | 0.00 | 0.38 | 0.38 | 93 | 1013.9 |
| 20260510090017 | 22 | 188 | 0.0 | 1.6 | 0.00 | 0.38 | 0.38 | 93 | 1013.9 |
| 20260510085505 | 22 | 188 | 0.0 | 1.6 | 0.00 | 0.38 | 0.38 | 93 | 1013.8 |
| 20260510085008 | 22 | 188 | 0.0 | 1.6 | 0.00 | 0.38 | 0.38 | 93 | 1013.8 |
| 20260510084518 | 22 | 188 | 0.0 | 1.6 | 0.00 | 0.38 | 0.38 | 93 | 1013.7 |
| 20260510084007 | 22 | 188 | 0.0 | 1.6 | 0.00 | 0.38 | 0.38 | 93 | 1013.8 |
| 20260510083506 | 22 | 188 | 0.0 | 1.6 | 0.00 | 0.38 | 0.38 | 93 | 1013.8 |
| 20260510083003 | 22 | 188 | 0.0 | 1.6 | 0.00 | 0.38 | 0.38 | 93 | 1013.8 |
| 20260510082503 | 22 | 188 | 0.0 | 1.6 | 0.00 | 0.38 | 0.38 | 93 | 1013.7 |
| 20260510082002 | 22 | 188 | 0.0 | 3.2 | 0.00 | 0.38 | 0.38 | 93 | 1013.6 |
| 20260510081522 | 22 | 188 | 0.0 | 3.2 | 0.00 | 0.38 | 0.38 | 93 | 1013.6 |
| 20260510081004 | 22 | 188 | 0.0 | 3.2 | 0.00 | 0.38 | 0.38 | 93 | 1013.8 |
| 20260510080504 | 22 | 188 | 0.0 | 3.2 | 0.00 | 0.38 | 0.38 | 93 | 1013.9 |
| 20260510080012 | 22 | 187 | 0.0 | 1.6 | 0.00 | 0.38 | 0.38 | 92 | 1014.0 |
| 20260510075505 | 22 | 187 | 0.0 | 1.6 | 0.00 | 0.38 | 0.38 | 92 | 1013.9 |
| 20260510075005 | 22 | 187 | 0.0 | 1.6 | 0.00 | 0.38 | 0.38 | 92 | 1013.8 |
| 20260510074517 | 22 | 187 | 0.0 | 1.6 | 0.00 | 0.38 | 0.38 | 92 | 1013.8 |
| 20260510074007 | 22 | 187 | 0.0 | 1.6 | 0.00 | 0.38 | 0.38 | 92 | 1013.9 |
| 20260510073511 | 23 | 187 | 0.0 | 1.6 | 0.00 | 0.38 | 0.38 | 92 | 1014.0 |
| 20260510073020 | 23 | 187 | 0.0 | 1.6 | 0.00 | 0.38 | 0.38 | 92 | 1013.9 |
| 20260510072512 | 23 | 186 | 0.0 | 0.0 | 0.00 | 0.38 | 0.38 | 92 | 1014.0 |
| 20260510072009 | 23 | 186 | 0.0 | 1.6 | 0.00 | 0.38 | 0.38 | 92 | 1014.1 |
| 20260510071505 | 23 | 186 | 0.0 | 1.6 | 0.00 | 0.38 | 0.38 | 92 | 1014.3 |
| 20260510071003 | 23 | 186 | 1.6 | 1.6 | 0.03 | 0.38 | 0.38 | 92 | 1014.3 |
| 20260510070503 | 23 | 186 | 0.0 | 1.6 | 0.08 | 0.38 | 0.38 | 91 | 1014.4 |
| 20260510070011 | 23 | 186 | 0.0 | 1.6 | 0.20 | 0.38 | 0.38 | 91 | 1014.3 |
| 20260510065503 | 23 | 186 | 0.0 | 1.6 | 0.33 | 0.38 | 0.38 | 91 | 1014.3 |
| 20260510065003 | 23 | 186 | 0.0 | 1.6 | 0.33 | 0.38 | 0.38 | 91 | 1014.2 |
| 20260510064512 | 23 | 186 | 0.0 | 1.6 | 0.33 | 0.38 | 0.38 | 91 | 1014.3 |
| 20260510064005 | 23 | 186 | 0.0 | 1.6 | 0.38 | 0.38 | 0.38 | 91 | 1014.4 |
| 20260510063507 | 23 | 186 | 0.0 | 1.6 | 0.38 | 0.38 | 0.38 | 90 | 1014.4 |
| 20260510063022 | 23 | 186 | 0.0 | 1.6 | 0.38 | 0.38 | 0.38 | 90 | 1014.5 |
| 20260510062630 | 23 | 186 | 0.0 | 1.6 | 0.38 | 0.38 | 0.38 | 90 | 1014.6 |
| 20260510062015 | 23 | 194 | 0.0 | 1.6 | 0.38 | 0.38 | 0.38 | 90 | 1014.7 |
| 20260510061526 | 23 | 194 | 0.0 | 1.6 | 0.38 | 0.38 | 0.38 | 89 | 1014.7 |
| 20260510061009 | 23 | 194 | 0.0 | 3.2 | 0.36 | 0.36 | 0.36 | 89 | 1014.9 |
| 20260510060508 | 23 | 194 | 0.0 | 3.2 | 0.30 | 0.30 | 0.30 | 88 | 1015.1 |
| 20260510060004 | 23 | 192 | 0.0 | 1.6 | 0.18 | 0.18 | 0.18 | 87 | 1015.2 |
| 20260510055503 | 23 | 192 | 0.0 | 4.8 | 0.05 | 0.05 | 0.05 | 86 | 1015.3 |
| 20260510055003 | 24 | 192 | 0.0 | 4.8 | 0.05 | 0.05 | 0.05 | 85 | 1015.2 |
| 20260510054515 | 24 | 190 | 1.6 | 6.4 | 0.05 | 0.05 | 0.05 | 84 | 1015.2 |
| 20260510054007 | 24 | 192 | 0.0 | 6.4 | 0.00 | 0.00 | 0.00 | 83 | 1015.3 |
| 20260510053505 | 24 | 194 | 0.0 | 3.2 | 0.00 | 0.00 | 0.00 | 82 | 1015.4 |
| 20260510053016 | 24 | 189 | 0.0 | 3.2 | 0.00 | 0.00 | 0.00 | 82 | 1015.3 |
| 20260510052509 | 24 | 189 | 0.0 | 3.2 | 0.00 | 0.00 | 0.00 | 82 | 1015.3 |
| 20260510052012 | 25 | 188 | 0.0 | 1.6 | 0.00 | 0.00 | 0.00 | 81 | 1015.4 |
| 20260510051523 | 25 | 188 | 0.0 | 1.6 | 0.00 | 0.00 | 0.00 | 81 | 1015.4 |
| 20260510051007 | 25 | 188 | 0.0 | 3.2 | 0.00 | 0.00 | 0.00 | 81 | 1015.5 |
| 20260510050508 | 25 | 187 | 0.0 | 3.2 | 0.00 | 0.00 | 0.00 | 81 | 1015.6 |
| 20260510050024 | 25 | 187 | 0.0 | 4.8 | 0.00 | 0.00 | 0.00 | 81 | 1015.6 |
| 20260510045509 | 25 | 183 | 1.6 | 4.8 | 0.00 | 0.00 | 0.00 | 81 | 1015.4 |
| 20260510045010 | 25 | 183 | 1.6 | 3.2 | 0.00 | 0.00 | 0.00 | 81 | 1015.5 |
| 20260510044519 | 25 | 190 | 0.0 | 1.6 | 0.00 | 0.00 | 0.00 | 81 | 1015.6 |
| 20260510044003 | 25 | 190 | 0.0 | 0.0 | 0.00 | 0.00 | 0.00 | 81 | 1015.5 |
| 20260510043502 | 25 | 190 | 0.0 | 0.0 | 0.00 | 0.00 | 0.00 | 81 | 1015.5 |
| 20260510043012 | 25 | 190 | 0.0 | 1.6 | 0.00 | 0.00 | 0.00 | 81 | 1015.6 |
| 20260510042504 | 25 | 190 | 0.0 | 1.6 | 0.00 | 0.00 | 0.00 | 81 | 1015.7 |
| 20260510042003 | 25 | 190 | 0.0 | 1.6 | 0.00 | 0.00 | 0.00 | 81 | 1015.6 |
| 20260510041516 | 25 | 190 | 0.0 | 1.6 | 0.00 | 0.00 | 0.00 | 81 | 1015.6 |
| 20260510041007 | 25 | 190 | 0.0 | 1.6 | 0.00 | 0.00 | 0.00 | 81 | 1015.6 |
| 20260510040506 | 25 | 190 | 0.0 | 1.6 | 0.00 | 0.00 | 0.00 | 81 | 1015.5 |
| 20260510040033 | 25 | 190 | 0.0 | 1.6 | 0.00 | 0.00 | 0.00 | 81 | 1015.5 |
| 20260510035508 | 25 | 190 | 0.0 | 1.6 | 0.00 | 0.00 | 0.00 | 81 | 1015.5 |
| 20260510035008 | 25 | 190 | 0.0 | 1.6 | 0.00 | 0.00 | 0.00 | 81 | 1015.4 |
| 20260510034522 | 25 | 190 | 0.0 | 1.6 | 0.00 | 0.00 | 0.00 | 81 | 1015.4 |
| 20260510034008 | 25 | 187 | 0.0 | 1.6 | 0.00 | 0.00 | 0.00 | 80 | 1015.4 |
| 20260510033511 | 25 | 187 | 0.0 | 1.6 | 0.00 | 0.00 | 0.00 | 80 | 1015.3 |
| 20260510033046 | 25 | 187 | 0.0 | 1.6 | 0.00 | 0.00 | 0.00 | 79 | 1015.3 |
| 20260510032504 | 25 | 187 | 0.0 | 1.6 | 0.00 | 0.00 | 0.00 | 79 | 1015.4 |
| 20260510032006 | 25 | 187 | 0.0 | 1.6 | 0.00 | 0.00 | 0.00 | 79 | 1015.3 |
| 20260510031512 | 25 | 187 | 0.0 | 1.6 | 0.00 | 0.00 | 0.00 | 79 | 1015.4 |
| 20260510031004 | 25 | 187 | 0.0 | 3.2 | 0.00 | 0.00 | 0.00 | 78 | 1015.3 |
| 20260510030506 | 25 | 183 | 0.0 | 3.2 | 0.00 | 0.00 | 0.00 | 78 | 1015.3 |
| 20260510030018 | 25 | 183 | 1.6 | 3.2 | 0.00 | 0.00 | 0.00 | 78 | 1015.4 |
| 20260510025508 | 25 | 186 | 0.0 | 1.6 | 0.00 | 0.00 | 0.00 | 77 | 1015.4 |
| 20260510025008 | 25 | 186 | 0.0 | 1.6 | 0.00 | 0.00 | 0.00 | 77 | 1015.3 |
| 20260510024522 | 25 | 186 | 0.0 | 1.6 | 0.00 | 0.00 | 0.00 | 77 | 1015.4 |
| 20260510024008 | 25 | 186 | 0.0 | 3.2 | 0.00 | 0.00 | 0.00 | 77 | 1015.3 |
| 20260510023509 | 25 | 182 | 0.0 | 3.2 | 0.00 | 0.00 | 0.00 | 76 | 1015.3 |
| 20260510023024 | 26 | 182 | 0.0 | 3.2 | 0.00 | 0.00 | 0.00 | 76 | 1015.2 |
| 20260510022510 | 26 | 180 | 1.6 | 4.8 | 0.00 | 0.00 | 0.00 | 77 | 1015.3 |
| 20260510022010 | 26 | 174 | 1.6 | 4.8 | 0.00 | 0.00 | 0.00 | 77 | 1015.3 |
| 20260510021527 | 26 | 184 | 1.6 | 6.4 | 0.00 | 0.00 | 0.00 | 76 | 1015.2 |
| 20260510021005 | 26 | 183 | 0.0 | 6.4 | 0.00 | 0.00 | 0.00 | 77 | 1015.1 |
| 20260510020505 | 26 | 245 | 1.6 | 4.8 | 0.00 | 0.00 | 0.00 | 77 | 1015.1 |
| 20260510020019 | 26 | 229 | 3.2 | 4.8 | 0.00 | 0.00 | 0.00 | 77 | 1015.0 |
| 20260510015504 | 26 | 226 | 3.2 | 4.8 | 0.00 | 0.00 | 0.00 | 75 | 1015.0 |
| 20260510015012 | 26 | 232 | 1.6 | 4.8 | 0.00 | 0.00 | 0.00 | 75 | 1014.7 |
| 20260510014518 | 26 | 246 | 1.6 | 6.4 | 0.00 | 0.00 | 0.00 | 74 | 1014.6 |
| 20260510014008 | 26 | 232 | 3.2 | 6.4 | 0.00 | 0.00 | 0.00 | 74 | 1014.6 |
| 20260510013508 | 26 | 231 | 3.2 | 6.4 | 0.00 | 0.00 | 0.00 | 74 | 1014.7 |
| 20260510013024 | 26 | 248 | 3.2 | 8.0 | 0.00 | 0.00 | 0.00 | 73 | 1014.5 |
| 20260510012504 | 26 | 235 | 3.2 | 8.0 | 0.00 | 0.00 | 0.00 | 74 | 1014.3 |
| 20260510012003 | 26 | 280 | 3.2 | 8.0 | 0.00 | 0.00 | 0.00 | 72 | 1014.2 |
| 20260510011513 | 26 | 226 | 3.2 | 6.4 | 0.00 | 0.00 | 0.00 | 73 | 1014.4 |
| 20260510011004 | 26 | 253 | 3.2 | 6.4 | 0.00 | 0.00 | 0.00 | 72 | 1014.3 |
| 20260510010503 | 26 | 234 | 3.2 | 6.4 | 0.00 | 0.00 | 0.00 | 71 | 1014.2 |
| 20260510010011 | 27 | 227 | 3.2 | 6.4 | 0.00 | 0.00 | 0.00 | 70 | 1014.2 |
| 20260510005504 | 27 | 244 | 4.8 | 6.4 | 0.00 | 0.00 | 0.00 | 70 | 1014.2 |
| 20260510005004 | 27 | 220 | 3.2 | 9.7 | 0.00 | 0.00 | 0.00 | 69 | 1014.2 |
| 20260510004516 | 27 | 230 | 3.2 | 9.7 | 0.00 | 0.00 | 0.00 | 68 | 1014.0 |
| 20260510004004 | 27 | 230 | 3.2 | 11.3 | 0.00 | 0.00 | 0.00 | 67 | 1013.9 |
| 20260510003508 | 27 | 322 | 4.8 | 11.3 | 0.00 | 0.00 | 0.00 | 67 | 1013.8 |
| 20260510003020 | 27 | 19 | 6.4 | 11.3 | 0.00 | 0.00 | 0.00 | 66 | 1013.9 |
| 20260510002507 | 27 | 279 | 6.4 | 11.3 | 0.00 | 0.00 | 0.00 | 66 | 1013.8 |
| 20260510002006 | 27 | 300 | 1.6 | 11.3 | 0.00 | 0.00 | 0.00 | 65 | 1013.6 |
| 20260510001521 | 27 | 336 | 6.4 | 11.3 | 0.00 | 0.00 | 0.00 | 64 | 1013.5 |
| 20260510001009 | 27 | 254 | 4.8 | 11.3 | 0.00 | 0.00 | 0.00 | 63 | 1013.6 |
| 20260510000504 | 28 | 241 | 6.4 | 14.5 | 0.00 | 0.00 | 0.00 | 62 | 1013.6 |
| 20260510000015 | 28 | 265 | 8.0 | 14.5 | 0.00 | 0.00 | 0.00 | 61 | 1013.5 |
| 20260509235503 | 28 | 268 | 4.8 | 11.3 | 0.00 | 0.00 | 0.00 | 60 | 1013.3 |
| 20260509235005 | 28 | 265 | 4.8 | 11.3 | 0.00 | 0.00 | 0.00 | 59 | 1013.2 |
| 20260509234520 | 28 | 282 | 6.4 | 12.9 | 0.00 | 0.00 | 0.00 | 58 | 1013.3 |
| 20260509234006 | 28 | 286 | 6.4 | 12.9 | 0.00 | 0.00 | 0.00 | 56 | 1013.3 |
| 20260509233506 | 28 | 262 | 4.8 | 11.3 | 0.00 | 0.00 | 0.00 | 55 | 1013.1 |
| 20260509233018 | 29 | 249 | 4.8 | 14.5 | 0.00 | 0.00 | 0.00 | 54 | 1013.0 |
| 20260509232504 | 29 | 249 | 3.2 | 14.5 | 0.00 | 0.00 | 0.00 | 53 | 1013.0 |
| 20260509232008 | 29 | 236 | 8.0 | 14.5 | 0.00 | 0.00 | 0.00 | 52 | 1012.9 |
| 20260509231521 | 29 | 270 | 6.4 | 11.3 | 0.00 | 0.00 | 0.00 | 50 | 1012.9 |